This demonstration page uses our WeatherBlox Daily Observations layout. Learn more.

Left ArrowRight Arrow

Hourly Observations for February 5, 2021

Temp ( °F °C ) Dew Point ( °F °C ) Humidity (%) Winds ( mph kmh ) Pressure ( in mb ) Visibility ( mi km ) Precip ( " mm )
12:15 am 00:15 Partly Cloudy 28 -2.1 20 -6.5 72 72 W 8 13 29.96 1015 10 16 N/A
12:35 am 00:35 Clear 29 -1.5 21 -6.2 71 71 W 10 17 29.96 1015 10 16 N/A
12:55 am 00:55 Clear 29 -1.5 20 -6.5 69 69 W 10 17 29.95 1014 10 16 N/A
1:15 am 01:15 Clear 29 -1.7 20 -6.4 71 71 W 10 17 29.95 1014 10 16 N/A
1:35 am 01:35 Clear 28 -2.5 20 -6.4 75 75 W 12 19 29.95 1014 10 16 N/A
1:55 am 01:55 Clear 28 -2.3 20 -6.4 74 74 W 10 17 29.95 1014 10 16 N/A
2:15 am 02:15 Clear 27 -2.9 19 -7 74 74 W 9 15 29.95 1014 10 16 N/A
2:35 am 02:35 Partly Cloudy 28 -2.5 20 -6.6 74 74 W 10 17 29.95 1014 10 16 N/A
2:55 am 02:55 Partly Cloudy 28 -2 20 -6.5 72 72 W 15 24 29.94 1014 10 16 N/A
3:15 am 03:15 Clear 28 -2.5 20 -6.6 74 74 W 13 20 29.95 1014 10 16 N/A
3:35 am 03:35 Clear 28 -2.5 20 -6.6 74 74 W 13 20 29.95 1014 10 16 N/A
3:55 am 03:55 Clear 28 -2.5 20 -6.5 74 74 W 12 19 29.95 1014 10 16 N/A
4:15 am 04:15 Clear 27 -2.7 20 -6.7 74 74 W 10 17 29.95 1014 10 16 N/A
4:35 am 04:35 Mostly Cloudy 27 -3 20 -6.5 77 77 W 12 19 29.95 1014 10 16 N/A
4:55 am 04:55 Mostly Cloudy 29 -1.9 21 -6.3 72 72 W 10 17 29.94 1014 10 16 N/A
5:15 am 05:15 Partly Cloudy 28 -2.3 21 -6 76 76 W 9 15 29.95 1014 10 16 N/A
5:35 am 05:35 Mostly Cloudy 28 -2.5 21 -6 77 77 WSW 6 9 29.95 1014 10 16 N/A
5:55 am 05:55 Mostly Cloudy 28 -2 22 -5.5 77 77 W 6 9 29.94 1014 10 16 N/A
6:15 am 06:15 Cloudy 28 -2 23 -5.2 79 79 W 7 11 29.94 1014 10 16 N/A
6:35 am 06:35 Cloudy 27 -2.6 22 -5.6 80 80 W 8 13 29.95 1014 10 16 N/A
6:55 am 06:55 Cloudy 29 -1.6 22 -5.5 75 75 W 12 19 29.94 1014 10 16 N/A
7:15 am 07:15 Partly Cloudy 27 -2.9 20 -6.4 77 77 W 6 9 29.95 1014 10 16 N/A
7:35 am 07:35 Clear 27 -2.8 20 -6.6 75 75 W 6 9 29.95 1014 10 16 N/A
7:55 am 07:55 Sunny 26 -3.3 20 -6.9 76 76 W 3 6 29.96 1014 10 16 N/A
8:15 am 08:15 Sunny 26 -3.1 19 -7 75 75 W 5 7 29.95 1014 10 16 N/A
8:35 am 08:35 Sunny 28 -2.3 21 -6.2 75 75 W 8 13 29.96 1014 10 16 N/A
8:55 am 08:55 Sunny 29 -1.7 21 -5.9 73 73 W 8 13 29.95 1014 10 16 N/A
9:15 am 09:15 Sunny 30 -1.1 22 -5.5 72 72 W 10 17 29.94 1014 10 16 N/A
9:35 am 09:35 Sunny 30 -1 22 -5.5 72 72 W 9 15 29.94 1014 10 16 N/A
9:55 am 09:55 Sunny 32 -0.2 23 -4.9 71 71 W 10 17 29.94 1014 10 16 N/A
10:15 am 10:15 Sunny 32 undefined 24 -4.5 72 72 W 8 13 29.93 1014 10 16 N/A
10:35 am 10:35 Sunny 33 0.7 24 -4.2 70 70 W 8 13 29.93 1013 10 16 N/A
10:55 am 10:55 Sunny 34 1.1 25 -4.1 69 69 NW 6 9 29.92 1013 10 16 N/A
11:15 am 11:15 Sunny 35 1.6 26 -3.6 69 69 WNW 6 9 29.93 1014 10 16 N/A
11:35 am 11:35 Sunny 36 2.2 26 -3.1 68 68 NW 5 7 29.91 1013 10 16 N/A
11:55 am 11:55 Sunny 37 2.7 26 -3.2 65 65 NW 7 11 29.90 1012 10 16 N/A
12:15 pm 12:15 Sunny 38 3.3 27 -2.8 65 65 WNW 8 13 29.89 1012 10 16 N/A
12:35 pm 12:35 Sunny 38 3.5 27 -2.7 64 64 NW 8 13 29.88 1012 10 16 N/A
12:55 pm 12:55 Sunny 39 4 27 -2.9 61 61 NW 7 11 29.88 1012 10 16 N/A
1:15 pm 13:15 Sunny 39 4 27 -2.6 62 62 NW 6 9 29.87 1011 10 16 N/A
1:35 pm 13:35 Sunny 40 4.2 28 -2.4 63 63 NW 5 7 29.84 1011 10 16 N/A
1:55 pm 13:55 Sunny 40 4.7 27 -2.8 59 59 NW 3 6 29.84 1011 10 16 N/A
2:15 pm 14:15 Partly Cloudy 34 1.1 27 -3 74 74 ENE 17 28 29.87 1012 10 16 N/A
2:35 pm 14:35 Partly Cloudy 32 undefined 26 -3.3 79 79 E 14 22 29.88 1012 10 16 N/A
2:55 pm 14:55 Mostly Cloudy 30 -1 24 -4.2 79 79 ENE 17 28 29.90 1013 10 16 N/A
3:15 pm 15:15 Partly Cloudy 30 -1 24 -4.3 79 79 ENE 17 28 29.91 1013 10 16 N/A
3:35 pm 15:35 Sunny 30 -1.1 24 -4.2 80 80 ENE 14 22 29.91 1013 10 16 N/A
3:55 pm 15:55 Sunny 30 -1.2 24 -4.4 79 79 E 14 22 29.92 1013 10 16 N/A
4:15 pm 16:15 Sunny 29 -1.5 24 -4.7 79 79 ENE 12 19 29.92 1013 10 16 N/A
4:35 pm 16:35 Sunny 29 -1.6 24 -4.6 80 80 ENE 9 15 29.93 1014 10 16 N/A
4:55 pm 16:55 Sunny 29 -1.9 23 -4.8 81 81 E 10 17 29.93 1014 10 16 N/A
5:15 pm 17:15 Sunny 28 -2.5 23 -5.1 83 83 E 8 13 29.94 1014 10 16 N/A
5:35 pm 17:35 Sunny 27 -3 23 -5.2 85 85 E 7 11 29.95 1014 10 16 N/A
5:55 pm 17:55 Sunny 26 -3.2 22 -5.7 83 83 E 6 9 29.96 1014 10 16 N/A
6:15 pm 18:15 Clear 26 -3.5 22 -5.8 84 84 E 7 11 29.96 1014 10 16 N/A
6:35 pm 18:35 Clear 25 -4.1 21 -6.1 86 86 E 7 11 29.96 1015 10 16 N/A
6:55 pm 18:55 Clear 25 -4 21 -6.1 86 86 E 8 13 29.97 1015 10 16 N/A
7:15 pm 19:15 Clear 25 -4.1 21 -6.2 86 86 E 8 13 29.98 1015 10 16 N/A
7:35 pm 19:35 Mostly Cloudy 25 -4.1 20 -6.5 84 84 E 9 15 29.98 1015 10 16 N/A
7:55 pm 19:55 Cloudy 24 -4.3 20 -6.5 85 85 E 7 11 30.00 1016 10 16 N/A
8:15 pm 20:15 Cloudy 24 -4.5 20 -6.7 85 85 E 8 13 30.00 1016 10 16 N/A
8:35 pm 20:35 Cloudy 24 -4.5 20 -6.6 85 85 E 9 15 30.00 1016 10 16 N/A
8:55 pm 20:55 Cloudy 24 -4.5 20 -6.6 85 85 E 9 15 30.00 1016 10 16 N/A
9:15 pm 21:15 Cloudy 24 -4.6 20 -6.8 85 85 E 12 19 30.00 1016 10 16 N/A
9:35 pm 21:35 Cloudy 24 -4.5 20 -6.7 85 85 E 8 13 30.00 1016 10 16 N/A
9:55 pm 21:55 Cloudy 24 -4.5 20 -6.6 85 85 E 9 15 30.00 1016 10 16 N/A
10:15 pm 22:15 Cloudy 24 -4.3 20 -6.7 84 84 E 9 15 30.01 1016 10 16 N/A
10:35 pm 22:35 Cloudy 24 -4.3 20 -6.6 84 84 ESE 10 17 30.01 1016 10 16 N/A
10:55 pm 22:55 Cloudy with Light Snow 24 -4.4 20 -6.5 85 85 E 13 20 30.01 1016 4 6 N/A
11:15 pm 23:15 Cloudy with Light Snow 24 -4.5 21 -6.3 87 87 ESE 12 19 30.01 1016 3 4 N/A
11:35 pm 23:35 Cloudy with Light Snow 23 -4.8 21 -6.2 90 90 E 9 15 30.01 1016 2 3 N/A
11:55 pm 23:55 Cloudy with Light Snow 23 -5 21 -6.2 91 91 E 10 17 30.01 1016 2 3 N/A

Powered by AerisWeather